EW6343 Weather Reports


time (UTC)temp
F
wind
direction
speed
knots
gust
knots
rain 1hr
in
rain 24hr
in
rain mn
in
humidity
%
barometer
mb
20260505184504 58 65 1.7 6.1 0.00 0.00 0.00 67 1012.6
20260505183004 58 51 1.7 5.2 0.00 0.00 0.00 68 1012.6
20260505182005 58 26 2.6 7.8 0.00 0.00 0.00 68 1012.6
20260505180505 58 45 1.7 3.5 0.00 0.00 0.00 68 1012.6
20260505175504 59 85 1.7 3.5 0.00 0.00 0.00 70 1012.6
20260505172003 60 0 0.0 2.6 0.00 0.00 0.00 72 1012.6
20260505171504 61 190 1.7 3.5 0.00 0.00 0.00 73 1012.6
20260505171003 61 182 1.7 6.1 0.00 0.00 0.00 73 1012.6
20260505170503 62 183 1.7 6.1 0.00 0.00 0.00 72 1012.6
20260505170004 63 196 2.6 6.1 0.00 0.00 0.00 70 1012.6
20260505165003 65 195 2.6 7.8 0.00 0.00 0.00 61 1012.5
20260505164504 64 227 1.7 11.3 0.00 0.00 0.00 65 1012.6
20260505163503 62 354 1.7 5.2 0.00 0.00 0.00 59 1012.6
20260505163004 62 11 2.6 6.1 0.00 0.00 0.00 59 1012.6
20260505162504 62 35 2.6 7.8 0.00 0.00 0.00 61 1012.6
20260505161004 62 34 2.6 7.8 0.00 0.00 0.00 61 1012.6
20260505152503 61 50 1.7 7.8 0.00 0.00 0.00 67 1012.8
20260505151503 61 35 1.7 5.2 0.00 0.00 0.00 67 1012.8
20260505151003 60 31 1.7 5.2 0.00 0.00 0.00 68 1012.9
20260505140506 60 5 2.6 6.1 0.00 0.00 0.00 67 1013.3
20260505122505 60 28 2.6 7.8 0.00 0.00 0.00 73 1013.5
20260505121005 60 58 3.5 11.3 0.00 0.00 0.00 73 1013.5
20260505120506 60 51 3.5 11.3 0.00 0.00 0.00 72 1013.6
20260505120006 60 54 3.5 11.3 0.00 0.00 0.00 72 1013.5
20260505114506 59 53 5.2 16.5 0.00 0.00 0.00 75 1013.8
20260505113006 58 42 5.2 12.2 0.00 0.00 0.00 74 1013.9
20260505112505 58 51 5.2 12.2 0.00 0.00 0.00 75 1013.8
20260505111506 60 70 2.6 6.1 0.00 0.00 0.00 74 1013.7
20260505102006 56 70 3.5 7.8 0.00 0.00 0.00 81 1014.0
20260505101505 56 69 2.6 7.8 0.00 0.00 0.00 81 1014.1
20260505100505 56 50 3.5 8.7 0.00 0.00 0.00 81 1014.1
20260505094505 58 60 3.5 11.3 0.00 0.00 0.00 77 1014.1
20260505092506 58 60 5.2 12.2 0.00 0.00 0.00 77 1014.0
20260505092005 58 70 5.2 12.2 0.00 0.00 0.00 78 1014.1
20260505091506 58 76 2.6 10.4 0.00 0.00 0.00 78 1014.1
20260505091005 58 74 3.5 7.8 0.00 0.00 0.00 78 1014.1
20260505090505 57 46 3.5 8.7 0.00 0.00 0.00 80 1014.1
20260505090005 56 45 3.5 11.3 0.00 0.00 0.00 81 1014.1
20260505085005 56 67 2.6 8.7 0.00 0.00 0.00 81 1014.0
20260505083505 56 58 3.5 10.4 0.00 0.00 0.00 80 1014.0
20260505082505 56 62 5.2 13.9 0.00 0.00 0.00 81 1014.0
20260505082005 56 57 3.5 11.3 0.00 0.00 0.00 82 1014.0
20260505080505 55 59 3.5 8.7 0.00 0.00 0.00 84 1014.1
20260505080006 55 68 3.5 8.7 0.00 0.00 0.00 85 1014.1
20260505075506 54 67 2.6 7.8 0.00 0.00 0.00 85 1014.1
20260505075005 54 72 2.6 6.1 0.00 0.00 0.00 86 1014.0
20260505074505 54 74 2.6 6.1 0.00 0.00 0.00 86 1014.0
20260505073506 54 63 3.5 11.3 0.00 0.00 0.00 87 1014.0
20260505073005 54 54 3.5 11.3 0.00 0.00 0.00 87 1014.0
20260505072505 54 66 2.6 7.8 0.00 0.00 0.00 88 1014.0
20260505071505 54 52 1.7 5.2 0.00 0.00 0.00 91 1014.1
20260505071005 54 33 1.7 7.8 0.00 0.00 0.00 92 1014.1
20260505070504 54 16 2.6 7.8 0.00 0.00 0.00 92 1014.0
20260505070005 53 23 2.6 7.8 0.00 0.00 0.00 93 1014.1
20260505065005 53 36 2.6 7.8 0.00 0.00 0.00 95 1014.0
20260505064005 52 5 1.7 5.2 0.00 0.00 0.00 96 1014.0
20260505063505 52 3 1.7 3.5 0.00 0.00 0.00 96 1014.0
20260505063005 52 0 0.0 2.6 0.00 0.00 0.00 96 1014.1
20260505062505 51 0 0.0 0.9 0.00 0.00 0.00 96 1014.0
20260505061505 51 0 0.0 0.0 0.00 0.00 0.00 96 1013.8
20260505060505 51 0 0.0 0.0 0.00 0.00 0.00 96 1013.8
20260505055505 50 0 0.0 0.0 0.00 0.00 0.00 96 1013.9
20260505053005 51 0 0.0 0.0 0.00 0.00 0.00 96 1013.7
20260505052004 51 0 0.0 0.0 0.00 0.00 0.00 96 1013.7
20260505051505 51 0 0.0 0.0 0.00 0.00 0.00 96 1013.7
20260505051005 51 0 0.0 0.0 0.00 0.00 0.00 96 1013.7
20260505041005 50 0 0.0 0.0 0.00 0.00 0.00 96 1013.6
20260505040005 50 0 0.0 0.0 0.00 0.00 0.00 96 1013.7
20260505034504 50 0 0.0 0.0 0.00 0.01 0.00 96 1013.7
20260505033505 50 0 0.0 0.0 0.00 0.01 0.00 96 1013.7
20260505031505 49 0 0.0 0.0 0.00 0.01 0.00 96 1013.8